Regional Weather Roundup
Issued by NWS Pendleton, OR

Home | Current Version | Previous Version | Text Only | Print | Product List | Glossary On
Versions: 1 2 3 4 5 6 7 8 9 10 11 12 13 14 15 16 17 18 19 20 21 22 23 24 25 26 27 28 29 30 31 32 33 34 35 36 37 38 39 40 41 42 43 44 45 46 47 48 49 50
000
ASUS46 KPDT 280210
RWRPDT
PENDLETON REGIONAL WEATHER ROUNDUP
NATIONAL WEATHER SERVICE PENDLETON OREGON
700 PM PDT TUE JUN 27 2017

NOTE: FAIR INDICATES FEW OR NO CLOUDS BELOW 12,000 FEET WITH NO
SIGNIFICANT WEATHER AND/OR OBSTRUCTIONS TO VISIBILITY.

# INDICATES UNOFFICIAL STATION AND DATA

WAZ520-280310-
EAST SLOPES OF WASHINGTON CASCADES

CITY            SKY/WX      TMP DP  RH  WIND    PRES   REMARKS
#BULLFROG       N/A         73  39  29  W9      N/A
#CLE ELUM HS    N/A         71  41  34  N10     29.84R
#CLE ELUM LAKE  N/A         71  45  39  W1      29.89S
#ELK HTS DOT    N/A         71  71  100 SW7     N/A
#GLENWOOD       N/A         72  53  51  S7      29.76S
#NELSON 3SW     N/A         68  36  31  CALM    30.00R
#NILE           N/A         73  32  22  W6      29.05S
#TEANAWAY 4NE   N/A         72  46  39  W3      N/A
#TROUT LAKE 1NE N/A         70  50  49  W8      29.80S
#TROUT LAKE 1E  N/A         72  49  44  SW2     29.91S
$$

WAZ521-280310-
SIMCOE HIGHLANDS

CITY            SKY/WX      TMP DP  RH  WIND    PRES   REMARKS
#BICKLETON HS   N/A         74  50  43  SW9     29.55S
#CENTERVILLE 1SWN/A         70  50  49  N17     29.77S
#GOLDENDALE 1NE N/A         74  35  24  SW6     N/A
#GOLDENDALE 4W  N/A         74  14  10  W17     29.89F
#GOODNOE HILLS  N/A         77  51  40  W16     N/A
#LYLE 6NE       N/A         66  49  54  SW15G24 29.79S
#PITT 4SE       N/A         65  49  56  SW15G24 29.84F
$$

WAZ026-280310-
KITTITAS VALLEY

CITY            SKY/WX      TMP DP  RH  WIND    PRES   REMARKS
ELLENSBURG AP   SUNNY       77  38  24  NW29G39 29.82S
#ELLENSBURG CWU N/A         78  38  24  NW12    29.68S
#ELLENSBURG 3NE N/A         74  43  33  NW15G29 27.89F
#KITTITAS 3S    N/A         76  39  26  NW13    29.71R
#MANASTASH RDG  N/A         76  76  100 NW13G26 N/A
#ROCKY CYN DOT  N/A         77  41  28  W22     N/A
#RYEGRASS DOT   N/A         74  42  32  W22G32  N/A
$$

WAZ027-280310-
YAKIMA VALLEY

CITY            SKY/WX      TMP DP  RH  WIND    PRES   REMARKS
SUNNYSIDE AP    PTCLDY      80  50  35  E3      29.76S
YAKIMA AIRPORT  SUNNY       88  35  15  NW14    29.77S
YAKIMA-VAGABOND SUNNY       85  34  16  NW9     29.76F
#GRANDVIEW      N/A         83  44  25  CALM    29.73F
#MABTON         N/A         84  45  26  CALM    29.75S
#MOXEE 2E       N/A         84  N/A N/A CALM    29.68S
#NACHES 2SW     N/A         79  38  23  NW12    29.82S
#OUTLOOK DOT    N/A         84  32  15  E1      29.73S
#PARKER DOT     N/A         88  34  15  NE2     29.76F
#TERRACE HTS    N/A         85  41  21  S2      29.67F
#TOPPENISH      N/A         86  44  23  E1      29.63F
#I82 S UMTANUM RN/A         83  39  21  N13     N/A
#UNION GAP DOT  N/A         87  42  21  S3      29.79S
#W YAKIMA       N/A         83  37  19  W3      29.71S
#WHITE SWAN 5E  N/A         86  50  29  CALM    29.71S
#WILEY CITY 3W  N/A         83  36  19  CALM    29.75F
#ZILLAH DOT     N/A         87  38  18  E3      N/A
$$

WAZ028-280310-
LOWER COLUMBIA BASIN...WASHINGTON

CITY            SKY/WX      TMP DP  RH  WIND    PRES   REMARKS
PASCO           CLOUDY      85  44  24  S9      29.76F
PROSSER AWOS    N/A         82  48  31  S7      29.78F
RICHLAND AWOS   CLOUDY      86  44  23  E7      29.76S
#BENTON CITY    N/A         81  46  29  SW1     29.63F
#CONNELL 5N     N/A         83  44  25  SW2     29.73S
#CONNELL 5NW    N/A         80  51  36  SW1     29.68F
#ELTOPIA 6NW    N/A         80  54  41  CALM    28.75F
#KAHLOTUS       N/A         81  44  27  W7      29.73S
#KENNEWICK 3S   N/A         80  50  35  CALM    29.74F
#PATERSON       N/A         81  53  38  W5      29.72F
#PROSSER DOT    N/A         85  44  24  S7      29.77F
#SAGEMOOR 2W    N/A         82  55  40  S2      29.60F
#TOUCHET 2S     N/A         79  58  49  CALM    29.71F
#WEST PASCO     N/A         87  51  29  SE2     29.72S
$$

WAZ029-280310-
FOOTHILLS OF THE BLUES...WASHINGTON

CITY            SKY/WX      TMP DP  RH  WIND    PRES   REMARKS
WALLA WALLA AP  MOCLDY      82  46  28  W8      29.79F
#CLYDE 6NW      N/A         79  39  24  W1      29.73S
#DAYTON SCHOOL  N/A         79  46  31  CALM    29.83S
#DELANEY DOT    N/A         83  40  22  S5      29.79F
#LOWDEN 2SE     N/A         81  54  39  CALM    29.72F
#PLEASANT VIEW 1N/A         76  42  30  SW2     29.77F
#PRESCOTT       N/A         77  51  40  CALM    29.72S
#WHITMAN COLLEGEN/A         81  47  30  NW3     29.78F
#WAITSBURG 5S   N/A         76  50  40  W2      29.83F
#WAITSBURG 6SSE N/A         75  55  50  S1      29.77S
#WAITSBURG 8N   N/A         77  N/A N/A S5      29.83R
#WALLA WALLA 5E N/A         78  59  52  S2      N/A
#WALLA WALLA U  N/A         83  45  26  CALM    29.73F
#WHITMAN MISSIONN/A         82  52  35  CALM    29.74F
$$

WAZ030-280310-
BLUE MOUNTAINS...WASHINGTON

CITY            SKY/WX      TMP DP  RH  WIND    PRES   REMARKS
#DIXIE 5SE      N/A         72  48  43  W2      29.81S
$$

ORZ009-041-WAZ024-280310-
COLUMBIA RIVER GORGE

CITY            SKY/WX      TMP DP  RH  WIND    PRES   REMARKS
HOOD RIVER AP   PTCLDY      72  46  39  W9      29.89S
THE DALLES AP   PTCLDY      75  50  41  NW17G28 29.82F
#ARLINGTON AIRPON/A         78  50  38  SW17    29.76F
#CELILO DOT     N/A         77  50  39  SW14    N/A
#LYLE           N/A         74  52  46  W16G26  29.84F
#MARYHILL       N/A         76  48  37  N18     N/A
#RUFUS DOT      N/A         78  N/A N/A W23     N/A
#SMITHVILLE     N/A         75  51  43  N18G28  29.75F

$$

ORZ510-280310-
NORTH CENTRAL OREGON

CITY            SKY/WX      TMP DP  RH  WIND    PRES   REMARKS
#ANTELOPE       N/A         74  36  25  N5      29.63R
#CHENOWITH 1W   N/A         51  35  54  NW14    N/A
#COW CYN RST AREN/A         74  26  17  NW8     N/A
#DUFUR          N/A         74  37  26  N10     29.78S
#DUFUR 9E       N/A         69  45  42  W10     29.88S
#GRASS VALLEY 1SN/A         74  33  22  NW15    29.91S
#KENT DOT       N/A         71  36  28  NW9     N/A
#MAUPIN SCHOOL  N/A         80  37  21  W14     29.88R
#MORO SCHOOL    N/A         71  50  47  W15     29.96S
#SHANIKO 5WSW   N/A         70  27  20  N18     N/A
#SHANIKO 4NW    N/A         68  22  17  NW16G24 29.95S
#TYGH VALLEY 2NEN/A         79  34  20  N8      29.77S
#WAPANITIA AIRPON/A         74  32  21  NW12    29.80S
#WASCO DOT      N/A         74  50  43  W16     N/A
#WASCO 5NE      N/A         74  51  44  W13G25  29.78S
$$

ORZ511-280310-
CENTRAL OREGON

CITY            SKY/WX      TMP DP  RH  WIND    PRES   REMARKS
BEND AIRPORT    PTCLDY      79  43  28  NW17    29.92S
MADRAS AIRPORT  MOCLDY      73  36  26  NW17G26 29.91R
PRINEVILLE AP   PTCLDY      75  34  22  N17     29.92R
REDMOND AIRPORT PTCLDY      78  35  21  NW18G26 29.90R
#ASHWOOD SCHOOL N/A         77  29  17  W9      29.86R
#BEND 1SW       N/A         74  42  32  N2      N/A
#BEND-AWBREY    N/A         76  45  33  N2      29.75R
#BEND-KIM LN    N/A         75  44  33  NW9     29.70R
#CULVER         N/A         74  42  32  N3      29.70R
#CULVER 8W      N/A         79  26  14  W1      29.92S
#LAKE BILLY CHINN/A         77  N/A N/A W10     29.84R
#MADRAS 4S      N/A         75  21  13  N13     29.99
#POWELL BUTTE   N/A         76  38  25  N6      29.90R
#PRINEVILLE     N/A         77  36  23  W7      29.82R
#PRINEVILLE 3N  N/A         71  41  34  N13     29.76R
#WARM SPRINGS   N/A         78  41  27  CALM    29.66S

$$


ORZ509-280310-
EAST SLOPES OF OREGON CASCADES

CITY            SKY/WX      TMP DP  RH  WIND    PRES   REMARKS
SISTERS AWOS    N/A         73  45  37  W16G30  29.91R
#BLUE BOX PASS  N/A         60  N/A N/A NW8     N/A
#CAMP SHERMAN   N/A         73  35  25  S1      29.87R
#LA PINE 4NW    N/A         73  45  37  W1      29.80R
#LAVA BUTTE DOT N/A         78  44  30  N1      N/A
#SISTERS ODOT   N/A         36   8  30  W5      N/A
#SISTERS 3N     N/A         72  41  33  NW3     29.94S
#SUNRIVER       N/A         75  45  34  S2      29.76R
#TUMALO 3W      N/A         72  43  35  N13     29.63S
#WANOGA BUTTE D N/A         63  39  41  NW8     N/A

$$

ORZ044-280310-
LOWER COLUMBIA BASIN...OREGON

CITY            SKY/WX      TMP DP  RH  WIND    PRES   REMARKS
HERMISTON       MOCLDY      84  38  19  NW3     29.77S
#BOARDMAN SCHOOLN/A         80  51  36  S8      29.74F
#BOARDMAN 8SW   N/A         80  54  41  SW9     29.75S
#ECHO 8SW       N/A         81  51  35  CALM    29.79S
#I-84 EX 198 DOTN/A         81  46  29  E7      N/A
#IONE SCHOOL    N/A         78  41  27  W10     29.77R
#UMATILLA       N/A         85  44  24  CALM    29.67S
$$

ORZ507-280310-
NORTHERN FOOTHILLS OF THE BLUES

CITY            SKY/WX      TMP DP  RH  WIND    PRES   REMARKS
PENDLETON AIRPT PTCLDY      78  43  29  NW7     29.81S
#ADAMS 3WNW     N/A         78  50  38  NW1     29.74S
#ATHENA         N/A         80  47  31  CALM    29.78S
#CAYUSE         N/A         79  41  26  W8      29.73F
#HELIX SCHOOL   N/A         77  45  32  CALM    29.75S
#HELIX 3N       N/A         77  38  24  NW3     29.81S
#HOLDMAN 5SE    N/A         79  42  27  CALM    29.81S
#HOLDMAN 6E     N/A         77  44  31  W2      29.57S
#M-F GROVE ELEM N/A          0  -78  1  CALM    29.78S
#M-FREEWATER 5SEN/A         80  55  42  CALM    29.80S
#PENDLETON DNTN N/A         81  42  25  NW2     29.78S
#PDT AQUATIC CTRN/A         82  42  24  NW3     29.81S
#PDT SUNRIDGE   N/A         81  41  24  NW3     29.80S
#PILOT ROCK 1S  N/A         80  41  25  W7      29.84R
#PILOT ROCK     N/A         82  42  24  CALM    29.85R
#TUTUILLA       N/A         79  43  28  CALM    29.85S
#UMAPINE 2E     N/A         79  57  47  CALM    29.74F
#WESTON SCHOOL  N/A         77  39  25  N2      29.71S

$$

ORZ508-280310-
SOUTHERN FOOTHILLS OF THE BLUES

CITY            SKY/WX      TMP DP  RH  WIND    PRES   REMARKS
LEXINGTON       PTCLDY      79  36  21  W14     29.87R
#AJAX           N/A         73  35  25  S13     30.03S
#CONDON 5W      N/A         68  30  24  NW5     29.90R
#HEPPNER EOC    N/A         77  30  18  W9      29.70S
#HEPPNER 4NE    N/A         74  30  20  W9      29.77R
#LEXINGTON 2SE  N/A         78  42  28  W7      29.78S
#MIKKALO        N/A         75  39  27  NW15    29.97S
#OLEX 4N        N/A         77  46  33  W23G31  29.80S
#RUGGS 5NE      N/A         74  -20  2  W9      30.07S
#RUGGS 2SW      N/A         73  33  23  N7      29.78S

$$

ORZ502-503-280310-
BLUE MOUNTAINS

CITY            SKY/WX      TMP DP  RH  WIND    PRES   REMARKS
MEACHAM         SUNNY       71  32  24  VRB5    29.92F
#BATTLE MTN DOT N/A         69  36  30  N2      N/A
#CUTSFORTH PARK N/A          0  -78  1  CALM    29.72R
#GRANITE        N/A         73  39  29  N3      29.84F
#GREENHORN 9SW  N/A         76  46  34  W2      29.89F
#HARDMAN 10S    N/A         68  32  26  N1      29.89S
#HEPPNER 15SE   N/A         67  34  29  W9      29.86S
#LADD CYN SMT   N/A         74  43  33  N10     N/A
#LADD CREEK ODOTN/A         75  44  33  NE10    N/A
#LONG CREEK HS  N/A         76  44  32  CALM    N/A
#N POWDER DOT   N/A         75  49  40  N14     N/A
#PIKES PEAK     N/A         68  45  44  CALM    27.99S
#SUMMERVILLE 5NWN/A         74  42  32  N2      29.87F
#TOLLGATE       N/A         62  33  34  SW2     29.84S
#TROY SCHOOL    N/A         87  38  18  CALM    29.54S
#WESTON 4E      N/A         73  44  35  CALM    29.74F
$$

ORZ505-280310-
JOHN DAY BASIN

CITY            SKY/WX      TMP DP  RH  WIND    PRES   REMARKS
JOHN DAY        PTCLDY      80  40  24  N12     29.89R
#JOHN DAY KJDY  N/A         83  N/A N/A CALM    30.03R
#ANTELOPE 9ESE  N/A         82  33  17  W2      N/A
#DAYVILLE SCHOOLN/A         84  34  17  N7      29.80S
#MITCHELL       N/A         80  43  27  N2      30.04R
#MITCHELL 8NW   N/A         78  30  17  N3      29.76S
#MONUMENT HS    N/A         84  36  18  E8      29.77S
#MT. VERNON 5SE N/A         78  42  28  E2      29.85S
#SPRAY SCHOOL   N/A         85  N/A N/A CALM    N/A
$$

ORZ506-280310-
OCHOCO AND JOHN DAY HIGHLANDS

CITY            SKY/WX      TMP DP  RH  WIND    PRES   REMARKS
#HORSE RIDGE DO N/A         76  38  25  NW12    N/A
#PAULINA ODOT   N/A         80  36  21  N6      N/A
#PINE MTN OBS   N/A         65  42  43  N7      N/A
#PRAIRIE CITY   N/A         82  42  24  CALM    30.00F
#SENECA         N/A         77  N/A N/A N6      N/A
#SENECA 9NW     N/A         73  42  33  CALM    29.70R
$$

ORZ049-280310-
GRANDE RONDE VALLEY

CITY            SKY/WX      TMP DP  RH  WIND    PRES   REMARKS
LA GRANDE       SUNNY       77  43  30  NW13    29.85S
#COVE           N/A         79  55  44  CALM    29.89S
#COVE SCHOOL    N/A         77  49  37  N1      29.88S
#COVE 6NW       N/A         78  50  38  NW7     29.73F
#ELGIN 3N       N/A         76  31  19  W6      29.83F
#ELGIN 1E       N/A         79  40  25  W3      N/A
#IMBLER SCHOOL  N/A         76  46  34  CALM    29.82S
#ISLAND CITY 4N N/A         75  57  54  CALM    29.94F
#LA GRANDE-LEFFEN/A         78  44  30  W7      29.87S
$$

ORZ050-280310-
WALLOWA COUNTY

CITY            SKY/WX      TMP DP  RH  WIND    PRES   REMARKS
JOSEPH AIRPORT  SUNNY       72  37  28  N5      29.93S
#ENTERPRISE HS  N/A         75  43  32  N3      29.62R
#IMNAHA SCHOOL  N/A         82  37  20  CALM    29.79S
#IMNAHA 10S     N/A         76  41  28  CALM    29.83F
#JOSEPH         N/A         72  37  28  NW6     29.93R
#JOSEPH 3N      N/A         72  41  33  N2      29.95S
#JOSEPH 3W      N/A         66  46  48  SW2     29.81R
#LOSTINE        N/A         74  41  30  NW2     29.55S
#LOSTINE 3SE    N/A         73  39  29  N7      29.92S
#MT HOWARD 8000 N/A         54  40  59  NW5     30.13F
#PROMISE 1S     N/A         73  37  27  W8      29.82F
#WALLOWA LAKE   N/A         63  49  60  CALM    29.96R
#WALLOWA SCHOOL N/A         78  36  22  NW1     29.83F



$$



USA.gov is the U.S. government's official web portal to all federal, state and local government web resources and services.